Barrow, AK

9:05 AM AKDT on June 19, 2018 (GMT -0800)
Wiley Post-Will Rogers Memorial

Weather History for PABR - November, 2017

Change the Weather History Date:

Tuesday, November 21, 2017

  Actual Average Record
Temperature  
Mean Temperature 5 °F -2 °F  
Max Temperature 10 °F 4 °F 32 °F (2010)
Min Temperature 0 °F -7 °F -37 °F (1935)
Degree Days  
Heating Degree Days 60 67  
Month to date heating degree days 831 1314  
Since 1 July heating degree days 4331 5337  
Cooling Degree Days 0 0  
Month to date cooling degree days 0 0  
Year to date cooling degree days 0 0  
Moisture  
Dew Point 2 °F    
Average Humidity 87    
Maximum Humidity 92    
Minimum Humidity 83    
Precipitation  
Precipitation 0.20 in 0.01 in 0.23 in (2004)
Month to date precipitation 0.89 0.16  
Year to date precipitation 7.93 4.34  
Snow  
Snow 2.00 in 0.20 in 2.60 in (1938)
Month to date snowfall 6.9 4.3  
Since 1 July snowfall 14.8 18.9  
Since 1 September snowfall 14.0 17.8  
Snow Depth 13.00 in    
Sea Level Pressure  
Sea Level Pressure 29.60 in    
Wind  
Wind Speed 31 mph (ESE)    
Max Wind Speed 38 mph    
Max Gust Speed 50 mph    
T = Trace of Precipitation, MM = Missing Value Source: NWS Daily Summary

Daily Weather History Graph

Daily Weather History Graph

Search for Another Location

Airport or City:

Astronomy

Nov. 21, 2017 Rise Set
Actual Time 12:40 PM AKST 1:45 PM AKST
Civil Twilight 10:21 AM AKST 4:03 PM AKST
Nautical Twilight 8:44 AM AKST 5:40 PM AKST
Astronomical Twilight 7:24 AM AKST 6:59 PM AKST
Moon No Moon Rise No Moon Set
Length of Visible Light 5h 42m
Length of Day
1h 04m
Waxing Crescent, 10% of the Moon is Illuminated
Nov 21
Waxing Crescent
Nov 26
First Quarter
Dec 3
Full
Dec 9
Last Quarter
Dec 17
New

Hourly Weather History & Observations

Time (AKST) Temp. Windchill Dew Point Humidity Pressure Visibility Wind Dir Wind Speed Gust Speed Precip Events Conditions
12:03 AM -0.4 °F -26.4 °F -4.0 °F 85% 29.91 in 0.8 mi ESE 29.9 mph 36.8 mph N/A   Mostly Cloudy
12:53 AM 1.0 °F -24.0 °F -2.9 °F 83% 29.88 in 0.8 mi ESE 28.8 mph 36.8 mph N/A   Mist
1:06 AM 1.0 °F -24.4 °F -2.9 °F 83% 29.87 in 1.0 mi ESE 29.9 mph - N/A   Overcast
1:53 AM 1.0 °F -24.8 °F -2.0 °F 87% 29.86 in 0.8 mi ESE 31.1 mph - N/A   Overcast
2:04 AM 1.0 °F -24.8 °F -2.0 °F 87% 29.84 in 1.0 mi ESE 31.1 mph 36.8 mph N/A   Overcast
2:16 AM 1.9 °F -22.8 °F -2.0 °F 83% 29.84 in 0.8 mi ESE 28.8 mph - N/A   Overcast
2:45 AM 1.4 °F -23.5 °F -2.2 °F 85% 29.82 in 1.0 mi ESE 28.8 mph - N/A   Overcast
2:53 AM 1.9 °F -22.4 °F -2.0 °F 83% 29.82 in 1.0 mi ESE 27.6 mph 35.7 mph N/A   Overcast
3:23 AM 1.9 °F -22.8 °F -0.9 °F 88% 29.80 in 0.8 mi ESE 28.8 mph - N/A   Overcast
3:31 AM 1.9 °F -22.8 °F -0.9 °F 88% 29.80 in 1.2 mi ESE 28.8 mph - N/A   Overcast
3:46 AM 1.9 °F -23.2 °F -0.9 °F 88% 29.78 in 0.8 mi ESE 29.9 mph 36.8 mph N/A   Overcast
3:53 AM 1.9 °F -24.3 °F -0.9 °F 88% 29.78 in 0.8 mi ESE 33.4 mph 39.1 mph N/A   Overcast
4:01 AM 1.9 °F -23.9 °F -0.9 °F 88% 29.78 in 0.5 mi ESE 32.2 mph 40.3 mph N/A Fog Light Freezing Fog
4:10 AM 1.9 °F -23.2 °F -0.9 °F 88% 29.78 in 0.8 mi ESE 29.9 mph 41.4 mph N/A   Overcast
4:22 AM 1.9 °F -24.3 °F -0.9 °F 88% 29.77 in 0.5 mi ESE 33.4 mph 41.4 mph N/A Fog Light Freezing Fog
4:53 AM 1.9 °F -24.3 °F -0.9 °F 88% 29.75 in 0.5 mi ESE 33.4 mph 41.4 mph 0.00 in Fog Light Freezing Fog
5:40 AM 1.9 °F -22.8 °F -0.9 °F 88% 29.73 in 0.8 mi ESE 28.8 mph - 0.00 in   Overcast
5:53 AM 1.9 °F -24.3 °F -0.9 °F 88% 29.73 in 0.8 mi ESE 33.4 mph 40.3 mph 0.00 in   Overcast
6:01 AM 1.9 °F -23.6 °F -0.9 °F 88% 29.72 in 0.5 mi ESE 31.1 mph 42.6 mph N/A Fog , Snow Blowing Snow
6:53 AM 3.0 °F -22.8 °F -0.0 °F 87% 29.69 in 0.5 mi ESE 33.4 mph 39.1 mph 0.01 in Fog , Snow Blowing Snow
7:53 AM 3.0 °F -22.8 °F -0.0 °F 87% 29.65 in 0.5 mi ESE 33.4 mph - 0.01 in Fog , Snow Blowing Snow
8:19 AM 3.9 °F -20.9 °F -0.0 °F 84% 29.62 in 0.5 mi ESE 31.1 mph 39.1 mph N/A Fog , Snow Blowing Snow
8:32 AM 3.9 °F -21.2 °F 1.0 °F 88% 29.62 in 0.5 mi ESE 32.2 mph 40.3 mph N/A Fog , Snow Blowing Snow
8:53 AM 3.9 °F -21.2 °F 1.0 °F 88% 29.62 in 0.5 mi ESE 32.2 mph 38.0 mph N/A Snow Blowing Snow
9:32 AM 5.0 °F -20.1 °F 1.9 °F 87% 29.58 in 0.2 mi East 33.4 mph 46.0 mph 0.00 in Snow Heavy Snow
9:53 AM 5.0 °F -20.1 °F 1.9 °F 87% 29.58 in 0.2 mi ESE 33.4 mph 42.6 mph 0.00 in Snow Heavy Snow
9:58 AM 5.0 °F -21.0 °F 1.9 °F 87% 29.58 in 0.2 mi ESE 36.8 mph 43.7 mph 0.00 in Snow Heavy Snow
10:06 AM 5.0 °F -18.7 °F 1.9 °F 87% 29.57 in 0.5 mi ESE 28.8 mph 43.7 mph 0.00 in Snow Snow
10:17 AM 5.0 °F -20.1 °F 1.9 °F 87% 29.56 in 0.5 mi East 33.4 mph 41.4 mph 0.01 in Snow Blowing Snow
10:53 AM 6.1 °F -17.9 °F 3.0 °F 87% 29.55 in 0.2 mi East 31.1 mph 41.4 mph 0.01 in Snow Blowing Snow
11:53 AM 7.0 °F -17.7 °F 3.9 °F 87% 29.52 in 0.5 mi East 34.5 mph 42.6 mph 0.02 in Snow Snow
12:23 PM 7.0 °F -18.3 °F 3.9 °F 87% 29.50 in 0.2 mi East 36.8 mph 49.5 mph 0.00 in Snow Heavy Snow
12:53 PM 7.0 °F -18.5 °F 3.9 °F 87% 29.50 in 0.2 mi East 38.0 mph 46.0 mph 0.01 in Snow Heavy Snow
1:10 PM 7.0 °F -18.5 °F 3.9 °F 87% 29.48 in 0.2 mi East 38.0 mph 44.9 mph 0.00 in Snow Heavy Snow
1:53 PM 7.0 °F -18.0 °F 3.9 °F 87% 29.46 in 0.5 mi East 35.7 mph 43.7 mph 0.02 in Snow Blowing Snow
2:53 PM 7.0 °F -17.3 °F 3.9 °F 87% 29.44 in 0.5 mi East 33.4 mph 46.0 mph 0.01 in Fog , Snow Blowing Snow
3:53 PM 8.1 °F -16.2 °F 5.0 °F 87% 29.43 in 0.5 mi East 34.5 mph 42.6 mph 0.01 in Fog , Snow Blowing Snow
4:05 PM 8.1 °F -16.2 °F 5.0 °F 87% 29.42 in 0.5 mi East 34.5 mph 43.7 mph N/A Fog , Snow Blowing Snow
4:35 PM 8.1 °F -15.2 °F 5.0 °F 87% 29.42 in 0.5 mi East 31.1 mph 44.9 mph 0.01 in Fog , Snow Blowing Snow
4:53 PM 8.1 °F -16.2 °F 5.0 °F 87% 29.42 in 0.5 mi East 34.5 mph 44.9 mph 0.01 in Fog , Snow Blowing Snow
5:34 PM 9.0 °F -14.0 °F 6.1 °F 88% 29.41 in 0.2 mi East 31.1 mph 43.7 mph 0.01 in Fog , Snow Blowing Snow
5:50 PM 8.6 °F -15.7 °F 6.8 °F 92% 29.41 in 0.2 mi East 35.7 mph 41.4 mph 0.03 in Fog , Snow Blowing Snow
5:53 PM 9.0 °F -14.9 °F 6.1 °F 88% 29.41 in 0.2 mi East 34.5 mph 41.4 mph 0.03 in Fog , Snow Blowing Snow
6:53 PM 10.0 °F -12.8 °F 7.0 °F 87% 29.39 in 0.2 mi ESE 32.2 mph 42.6 mph 0.01 in Fog , Snow Light Snow
7:20 PM 10.0 °F -11.5 °F 7.0 °F 87% 29.38 in 0.2 mi ESE 27.6 mph 39.1 mph 0.01 in Fog , Snow Heavy Snow
7:53 PM 9.0 °F -13.7 °F 6.1 °F 88% 29.39 in 0.2 mi ESE 29.9 mph 39.1 mph 0.01 in Fog , Snow Heavy Snow
8:53 PM 9.0 °F -14.0 °F 6.1 °F 88% 29.38 in 0.5 mi ESE 31.1 mph 36.8 mph 0.00 in Fog , Snow Blowing Snow
9:53 PM 9.0 °F -14.3 °F 6.1 °F 88% 29.37 in 0.2 mi ESE 32.2 mph 38.0 mph 0.02 in Fog , Snow Light Snow
10:53 PM 10.0 °F -12.5 °F 7.0 °F 87% 29.37 in 0.2 mi ESE 31.1 mph 38.0 mph 0.00 in Fog , Snow Light Snow
11:18 PM 9.0 °F -13.0 °F 6.1 °F 88% 29.38 in 0.5 mi ESE 27.6 mph - 0.02 in Fog , Snow Light Snow
11:29 PM 9.0 °F -13.3 °F 6.1 °F 88% 29.38 in 0.5 mi ESE 28.8 mph - 0.02 in Fog , Snow Light Snow
11:53 PM 10.0 °F -10.0 °F 7.0 °F 87% 29.39 in 0.5 mi ESE 23.0 mph 33.4 mph 0.02 in Fog , Snow Light Snow